CW0845 Weather Reports


time (UTC)temp
F
wind
direction
speed
knots
gust
knots
rain 1hr
in
rain 24hr
in
rain mn
in
humidity
%
barometer
mb
20211025032007 48 0 0.0 0.0 0.00 0.00 0.00 86 979.2
20211025031504 48 0 0.0 0.0 0.00 0.00 0.00 86 979.2
20211025031005 48 195 0.0 0.0 0.00 0.00 0.00 86 979.2
20211025030504 48 195 0.0 0.0 0.00 0.00 0.00 86 979.1
20211025030006 48 195 0.0 0.0 0.00 0.00 0.00 86 979.0
20211025025503 48 195 0.0 0.0 0.00 0.00 0.00 85 979.0
20211025025005 48 195 0.0 0.0 0.00 0.00 0.00 85 978.9
20211025024503 48 195 0.0 0.0 0.00 0.00 0.00 85 978.9
20211025024005 48 195 0.0 0.0 0.00 0.00 0.00 85 978.8
20211025023502 48 195 0.0 0.0 0.00 0.00 0.00 85 978.8
20211025023004 48 195 0.0 0.0 0.00 0.00 0.00 85 978.6
20211025022503 48 195 0.0 0.0 0.00 0.00 0.00 84 978.7
20211025022004 48 195 0.0 0.0 0.00 0.00 0.00 84 978.6
20211025021503 48 195 0.0 0.0 0.00 0.00 0.00 84 978.6
20211025021005 48 195 0.0 0.0 0.00 0.00 0.00 85 978.6
20211025020503 48 195 0.0 0.0 0.00 0.00 0.00 85 978.5
20211025020004 48 195 0.0 0.0 0.00 0.00 0.00 84 978.4
20211025015503 48 195 0.0 0.0 0.00 0.00 0.00 84 978.4
20211025015004 48 195 0.0 0.0 0.00 0.00 0.00 84 978.4
20211025014503 48 195 0.0 0.0 0.00 0.00 0.00 84 978.3
20211025014004 48 195 0.0 0.0 0.00 0.00 0.00 84 978.2
20211025013503 47 195 0.0 0.0 0.00 0.00 0.00 84 978.1
20211025013004 47 195 0.0 0.0 0.00 0.00 0.00 84 978.0
20211025012503 47 195 0.0 0.0 0.00 0.00 0.00 84 978.0
20211025012004 47 195 0.0 0.0 0.00 0.00 0.00 84 978.1
20211025011503 47 195 0.0 0.0 0.00 0.00 0.00 84 978.0
20211025011004 47 195 0.0 0.0 0.00 0.00 0.00 84 978.0
20211025010503 47 195 0.0 0.0 0.00 0.00 0.00 84 978.0
20211025010008 47 195 0.0 0.0 0.00 0.00 0.00 84 977.8
20211025005503 47 195 0.0 0.0 0.00 0.00 0.00 84 977.8
20211025005005 47 195 0.0 0.0 0.00 0.00 0.00 84 977.6
20211025004503 47 195 0.0 0.0 0.00 0.00 0.00 84 977.6
20211025004005 47 195 0.0 0.0 0.00 0.00 0.00 84 977.6
20211025003503 47 195 0.0 0.0 0.00 0.00 0.00 84 977.6
20211025003005 47 195 0.0 0.0 0.00 0.00 0.00 84 977.7
20211025002503 47 195 0.0 0.0 0.00 0.00 0.00 84 977.7
20211025002004 47 195 0.0 0.0 0.00 0.00 0.00 84 977.8
20211025001503 47 195 0.0 0.0 0.00 0.00 0.00 83 977.8
20211025001004 47 195 0.0 0.0 0.00 0.00 0.00 83 977.8
20211025000503 47 195 0.0 0.0 0.00 0.00 0.00 83 977.9
20211025000005 46 195 0.0 0.0 0.00 0.00 0.00 83 978.1
20211024235502 46 195 0.0 0.0 0.00 0.00 0.00 82 978.1
20211024235005 46 195 0.0 0.0 0.00 0.00 0.00 82 978.2
20211024234503 46 195 0.0 0.0 0.00 0.00 0.00 82 978.1
20211024234004 47 195 0.0 0.0 0.00 0.00 0.00 82 978.1
20211024233503 47 195 0.0 0.0 0.00 0.00 0.00 82 978.3
20211024233005 47 195 0.0 0.0 0.00 0.00 0.00 81 978.3
20211024232503 47 195 0.0 0.0 0.00 0.00 0.00 81 978.1
20211024232005 47 195 0.0 0.0 0.00 0.00 0.00 81 978.1
20211024231503 47 195 0.0 0.0 0.00 0.00 0.00 80 978.1
20211024231005 47 195 0.0 0.0 0.00 0.00 0.00 80 978.1
20211024230503 47 195 0.0 0.0 0.00 0.00 0.00 79 978.0
20211024230005 48 195 0.0 0.0 0.00 0.00 0.00 79 978.0
20211024225503 48 195 0.0 0.0 0.00 0.00 0.00 78 977.9
20211024225005 48 195 0.0 0.0 0.00 0.00 0.00 77 977.9
20211024224503 49 195 0.0 0.0 0.00 0.00 0.00 77 977.8
20211024224004 49 195 0.0 0.0 0.00 0.00 0.00 76 977.8
20211024223503 49 195 0.0 0.0 0.00 0.00 0.00 75 977.7
20211024223004 49 195 0.0 0.0 0.00 0.00 0.00 74 977.6
20211024222503 49 195 0.0 0.0 0.00 0.00 0.00 73 977.5
20211024222004 50 195 0.0 0.0 0.00 0.00 0.00 72 977.4
20211024221503 50 195 0.0 0.0 0.00 0.00 0.00 71 977.4
20211024221004 50 195 0.0 0.0 0.00 0.00 0.00 70 977.3
20211024220503 50 195 0.0 0.0 0.00 0.00 0.00 69 977.3
20211024220004 51 195 0.0 0.0 0.00 0.00 0.00 67 977.2
20211024215502 52 195 0.0 0.0 0.00 0.00 0.00 66 977.2
20211024215004 53 195 0.0 0.0 0.00 0.00 0.00 65 977.1
20211024214503 53 195 0.0 0.0 0.00 0.00 0.00 63 977.2
20211024214004 55 195 0.0 0.0 0.00 0.00 0.00 60 977.1
20211024213503 55 195 0.0 0.0 0.00 0.00 0.00 58 977.1
20211024213005 56 195 0.0 0.0 0.00 0.00 0.00 56 977.1
20211024212503 57 195 0.0 0.0 0.00 0.00 0.00 55 977.0
20211024212004 58 195 0.0 4.3 0.00 0.00 0.00 55 977.0
20211024211503 58 195 0.9 4.3 0.00 0.00 0.00 54 976.9
20211024211004 59 181 0.9 6.1 0.00 0.00 0.00 53 976.8
20211024210503 59 238 0.0 6.1 0.00 0.00 0.00 52 976.8
20211024210004 59 160 0.0 4.3 0.00 0.00 0.00 51 976.9
20211024205503 60 200 0.9 2.6 0.00 0.00 0.00 50 976.9
20211024205004 60 227 0.0 5.2 0.00 0.00 0.00 50 976.9
20211024204503 60 227 0.9 6.1 0.00 0.00 0.00 49 976.9
20211024204004 60 203 0.0 6.1 0.00 0.00 0.00 49 976.9
20211024203503 61 204 4.3 6.1 0.00 0.00 0.00 48 976.9
20211024203004 61 265 0.0 6.1 0.00 0.00 0.00 47 976.9
20211024202503 61 265 0.0 6.1 0.00 0.00 0.00 47 976.9
20211024202005 61 267 0.9 6.1 0.00 0.00 0.00 47 976.9
20211024201503 61 249 0.0 5.2 0.00 0.00 0.00 47 976.9
20211024201004 60 263 0.0 7.0 0.00 0.00 0.00 47 976.9
20211024200503 61 263 0.9 7.0 0.00 0.00 0.00 46 976.8
20211024200004 62 323 0.9 7.0 0.00 0.00 0.00 45 976.8
20211024195503 62 270 0.0 6.1 0.00 0.00 0.00 45 976.7
20211024195005 61 255 0.0 6.1 0.00 0.00 0.00 47 976.7
20211024194503 61 265 1.7 6.1 0.00 0.00 0.00 47 976.7
20211024194004 60 195 0.0 4.3 0.00 0.00 0.00 49 976.7
20211024193503 60 220 0.0 6.1 0.00 0.00 0.00 49 976.7
20211024193004 60 220 0.0 7.0 0.00 0.00 0.00 50 976.7
20211024192503 60 199 4.3 8.7 0.00 0.00 0.00 49 976.6
20211024192004 60 157 4.3 8.7 0.00 0.00 0.00 49 976.5
20211024191503 60 182 4.3 8.7 0.00 0.00 0.00 49 976.5
20211024191005 60 172 2.6 8.7 0.00 0.00 0.00 49 976.4
20211024190503 60 158 5.2 8.7 0.00 0.00 0.00 49 976.5
20211024190005 60 184 4.3 10.4 0.00 0.00 0.00 50 976.6
20211024185503 59 184 3.5 10.4 0.00 0.00 0.00 50 976.6
20211024185005 59 158 4.3 8.7 0.00 0.00 0.00 50 976.7
20211024184503 59 194 6.1 10.4 0.00 0.00 0.00 50 976.7
20211024184005 59 170 5.2 10.4 0.00 0.00 0.00 49 976.7
20211024183503 58 227 3.5 8.7 0.00 0.00 0.00 50 976.8
20211024183005 57 152 2.6 8.7 0.00 0.00 0.00 50 976.9
20211024182503 57 194 5.2 8.7 0.00 0.00 0.00 50 976.9
20211024182005 56 208 5.2 8.7 0.00 0.00 0.00 50 977.0
20211024181503 54 194 0.9 8.7 0.00 0.00 0.00 49 976.9
20211024181004 53 174 0.9 8.7 0.00 0.00 0.00 50 976.9
20211024180503 52 83 1.7 10.4 0.00 0.00 0.00 50 977.1
20211024180004 52 170 6.1 10.4 0.00 0.00 0.00 50 977.1
20211024175503 53 184 5.2 10.4 0.00 0.00 0.00 50 977.1
20211024175005 52 218 4.3 10.4 0.00 0.00 0.00 50 977.1
20211024174503 52 169 5.2 7.8 0.00 0.00 0.00 50 977.2
20211024174004 51 166 3.5 8.7 0.00 0.00 0.00 50 977.3
20211024173503 51 170 5.2 8.7 0.00 0.00 0.00 50 977.3
20211024173004 51 245 5.2 8.7 0.00 0.00 0.00 51 977.4
20211024172503 51 188 5.2 7.8 0.00 0.00 0.00 52 977.5
20211024172005 52 211 3.5 10.4 0.00 0.00 0.00 51 977.6
20211024171503 51 199 4.3 10.4 0.00 0.00 0.00 52 977.7
20211024171005 51 208 6.1 10.4 0.00 0.00 0.00 52 977.7
20211024170503 51 173 2.6 10.4 0.00 0.00 0.00 52 977.7
20211024170005 51 216 6.1 10.4 0.00 0.00 0.00 52 977.8
20211024165503 51 198 2.6 7.8 0.00 0.00 0.00 52 977.8
20211024165005 51 141 0.9 7.8 0.00 0.00 0.00 53 977.8
20211024164503 51 243 4.3 7.8 0.00 0.00 0.00 53 978.0
20211024164004 51 209 4.3 7.0 0.00 0.00 0.00 53 978.1
20211024163503 53 180 0.9 5.2 0.00 0.00 0.00 54 978.1
20211024163005 54 219 0.9 7.8 0.00 0.00 0.00 53 978.1
20211024162503 53 132 0.0 8.7 0.00 0.00 0.00 54 978.1
20211024162004 52 182 6.1 8.7 0.00 0.00 0.00 55 978.3
20211024161504 50 292 2.6 7.8 0.00 0.00 0.00 55 978.3
20211024161004 51 251 3.5 7.8 0.00 0.00 0.00 54 978.2
20211024160503 52 189 1.7 6.1 0.00 0.00 0.00 54 978.4
20211024160005 51 265 0.9 6.1 0.00 0.00 0.00 55 978.4
20211024155503 51 217 1.7 6.1 0.00 0.00 0.00 56 978.4
20211024155004 50 167 0.0 7.0 0.00 0.00 0.00 55 978.6
20211024154503 51 112 1.7 7.0 0.00 0.00 0.00 57 978.5
20211024154004 50 34 0.9 6.1 0.00 0.00 0.00 57 978.4
20211024153503 50 96 0.0 5.2 0.00 0.00 0.00 58 978.2
20211024153005 50 106 0.0 5.2 0.00 0.00 0.00 58 978.3
20211024152503 50 111 1.7 5.2 0.00 0.00 0.00 59 978.3
20211024152005 49 110 0.0 0.0 0.00 0.00 0.00 60 978.3
20211024151503 49 161 0.0 0.0 0.00 0.00 0.00 60 978.5
20211024151004 48 161 0.0 6.1 0.00 0.00 0.00 61 978.5
20211024150504 48 161 0.0 6.1 0.00 0.00 0.00 62 978.6
20211024150005 47 145 2.6 6.1 0.00 0.00 0.00 63 978.7
20211024145503 48 88 0.0 1.7 0.00 0.00 0.00 64 978.7
20211024145004 49 88 0.0 4.3 0.00 0.00 0.00 66 978.6
20211024144503 50 88 0.0 4.3 0.00 0.00 0.00 67 978.6
20211024144004 49 88 0.0 2.6 0.00 0.00 0.00 70 978.6
20211024143503 49 88 0.0 0.0 0.00 0.00 0.00 73 978.6
20211024143005 49 88 0.0 0.0 0.00 0.00 0.00 72 978.7
20211024142503 48 88 0.0 0.0 0.00 0.00 0.00 73 978.7
20211024142005 48 88 0.0 0.0 0.00 0.00 0.00 75 978.8
20211024141503 47 88 0.0 2.6 0.00 0.00 0.00 76 978.7
20211024141005 47 88 0.0 2.6 0.00 0.00 0.00 79 978.8
20211024140503 47 274 0.0 0.0 0.00 0.00 0.00 81 978.8
20211024140004 47 274 0.0 0.0 0.00 0.00 0.00 82 978.8
20211024135503 46 274 0.0 0.0 0.00 0.00 0.00 83 978.8
20211024135005 45 274 0.0 0.0 0.00 0.00 0.00 84 978.8
20211024134503 45 274 0.0 0.0 0.00 0.00 0.00 84 978.8
20211024134004 44 274 0.0 0.0 0.00 0.00 0.00 85 978.8
20211024133503 44 274 0.0 0.0 0.00 0.00 0.00 86 979.0
20211024133005 43 274 0.0 0.0 0.00 0.00 0.00 87 979.0
20211024132503 43 274 0.0 0.0 0.00 0.00 0.00 87 979.1
20211024132004 42 274 0.0 0.0 0.00 0.00 0.00 88 979.1
20211024131503 42 274 0.0 0.0 0.00 0.00 0.00 89 979.0
20211024131004 41 274 0.0 0.0 0.00 0.00 0.00 90 978.9
20211024130503 40 274 0.0 0.0 0.00 0.00 0.00 89 978.9
20211024130005 39 274 0.0 0.0 0.00 0.00 0.00 89 978.9
20211024125503 39 274 0.0 0.0 0.00 0.00 0.00 89 978.8
20211024125004 38 274 0.0 0.0 0.00 0.00 0.00 90 978.7
20211024124503 38 274 0.0 0.0 0.00 0.00 0.00 90 978.6
20211024124004 38 274 0.0 0.0 0.00 0.00 0.00 90 978.6
20211024123503 37 274 0.0 0.0 0.00 0.00 0.00 90 978.5
20211024123005 36 274 0.0 0.0 0.00 0.00 0.00 90 978.5
20211024122503 36 274 0.0 0.0 0.00 0.00 0.00 89 978.4
20211024122004 35 274 0.0 0.0 0.00 0.00 0.00 89 978.3
20211024121503 35 274 0.0 0.0 0.00 0.00 0.00 89 978.2
20211024121005 35 274 0.0 0.0 0.00 0.00 0.00 89 978.2
20211024120503 34 274 0.0 0.0 0.00 0.00 0.00 89 978.1
20211024120004 34 274 0.0 0.0 0.00 0.00 0.00 89 978.1
20211024115505 34 274 0.0 0.0 0.00 0.00 0.00 89 978.0
20211024115005 33 274 0.0 0.0 0.00 0.00 0.00 89 977.9
20211024114503 33 274 0.0 0.0 0.00 0.00 0.00 89 977.9
20211024114004 32 274 0.0 0.0 0.00 0.00 0.00 89 977.7
20211024113503 34 274 0.0 0.0 0.00 0.00 0.00 89 977.6
20211024113005 35 274 0.0 0.0 0.00 0.00 0.00 89 977.5
20211024112503 35 274 0.0 0.0 0.00 0.00 0.00 89 977.5
20211024112004 35 274 0.0 0.0 0.00 0.00 0.00 89 977.4
20211024111503 35 274 0.0 0.0 0.00 0.00 0.00 89 977.6
20211024111004 35 274 0.0 0.0 0.00 0.00 0.00 89 977.5
20211024110503 35 274 0.0 0.0 0.00 0.00 0.00 89 977.4
20211024110006 35 274 0.0 0.0 0.00 0.00 0.00 89 977.4
20211024105503 35 274 0.0 0.0 0.00 0.00 0.00 88 977.4
20211024105005 35 274 0.0 0.0 0.00 0.00 0.00 88 977.3
20211024104504 35 274 0.0 0.0 0.00 0.00 0.00 88 977.3
20211024104005 35 274 0.0 0.0 0.00 0.00 0.00 88 977.3
20211024103503 35 274 0.0 0.0 0.00 0.00 0.00 88 977.2
20211024103005 35 274 0.0 0.0 0.00 0.00 0.00 88 977.1
20211024102503 35 274 0.0 0.0 0.00 0.00 0.00 88 977.0
20211024102005 35 274 0.0 0.0 0.00 0.00 0.00 88 977.0
20211024101504 35 274 0.0 0.0 0.00 0.00 0.00 88 976.9
20211024101007 35 274 0.0 0.0 0.00 0.00 0.00 88 976.8
20211024100503 36 274 0.0 0.0 0.00 0.00 0.00 88 976.6
20211024100005 36 274 0.0 0.0 0.00 0.00 0.00 88 976.5
20211024095503 35 274 0.0 0.0 0.00 0.00 0.00 88 976.4
20211024095004 36 274 0.0 0.0 0.00 0.00 0.00 88 976.4
20211024094503 36 274 0.0 0.0 0.00 0.00 0.00 88 976.3
20211024094004 36 274 0.0 0.0 0.00 0.00 0.00 88 976.3
20211024093503 36 274 0.0 0.0 0.00 0.00 0.00 88 976.3
20211024093005 36 274 0.0 0.0 0.00 0.00 0.00 88 976.3
20211024092503 36 274 0.0 0.0 0.00 0.00 0.00 88 976.3
20211024092005 36 274 0.0 0.0 0.00 0.00 0.00 88 976.1
20211024091503 36 274 0.0 0.0 0.00 0.00 0.00 88 976.0
20211024091005 36 274 0.0 0.0 0.00 0.00 0.00 88 975.8
20211024090504 36 274 0.0 0.0 0.00 0.00 0.00 88 975.7
20211024090005 36 274 0.0 0.0 0.00 0.00 0.00 88 975.6
20211024085503 36 274 0.0 0.0 0.00 0.00 0.00 88 975.5
20211024085005 35 274 0.0 0.0 0.00 0.00 0.00 88 975.5
20211024084504 35 274 0.0 0.0 0.00 0.00 0.00 88 975.4
20211024084004 35 274 0.0 0.0 0.00 0.00 0.00 88 975.2
20211024083503 35 274 0.0 0.0 0.00 0.00 0.00 88 975.2
20211024083005 35 274 0.0 0.0 0.00 0.00 0.00 88 975.2
20211024082504 35 274 0.0 0.0 0.00 0.00 0.00 88 975.2
20211024082005 35 274 0.0 0.0 0.00 0.00 0.00 88 975.1
20211024081504 35 274 0.0 0.0 0.00 0.00 0.00 88 975.0
20211024081005 35 274 0.0 0.0 0.00 0.00 0.00 88 975.0
20211024080504 35 274 0.0 0.0 0.00 0.00 0.00 88 975.0
20211024080005 35 274 0.0 0.0 0.00 0.00 0.00 88 974.9
20211024075504 35 274 0.0 0.0 0.00 0.00 0.00 88 974.9
20211024075005 36 274 0.0 0.0 0.00 0.00 0.00 88 974.8
20211024074504 36 274 0.0 0.0 0.00 0.00 0.00 88 974.9
20211024074005 36 274 0.0 0.0 0.00 0.00 0.00 88 974.8
20211024073504 37 274 0.0 0.0 0.00 0.00 0.00 88 974.8
20211024073005 37 274 0.0 0.0 0.00 0.00 0.00 88 974.7
20211024072504 37 274 0.0 0.0 0.00 0.00 0.00 88 974.7
20211024072005 37 274 0.0 0.0 0.00 0.00 0.00 88 974.7
20211024071505 37 274 0.0 0.0 0.00 0.00 0.00 88 974.7
20211024071005 37 274 0.0 0.0 0.00 0.00 0.00 88 974.6
20211024070503 38 274 0.0 0.0 0.00 0.00 0.00 88 974.6
20211024070005 38 274 0.0 0.0 0.00 0.00 0.00 88 974.5
20211024065503 38 274 0.0 0.0 0.00 0.00 0.00 88 974.5
20211024065005 38 274 0.0 0.0 0.00 0.00 0.00 88 974.5
20211024064503 38 274 0.0 0.0 0.00 0.00 0.00 88 974.5
20211024064005 38 274 0.0 0.0 0.00 0.00 0.00 88 974.5
20211024063503 38 274 0.0 0.0 0.00 0.00 0.00 88 974.4
20211024063005 39 274 0.0 0.0 0.00 0.00 0.00 88 974.3
20211024062503 39 274 0.0 0.0 0.00 0.00 0.00 87 974.2
20211024062005 39 274 0.0 0.0 0.00 0.00 0.00 88 974.1
20211024061504 39 274 0.0 0.0 0.00 0.00 0.00 87 974.1
20211024061005 39 274 0.0 0.0 0.00 0.00 0.00 87 974.0
20211024060503 39 274 0.0 0.0 0.00 0.00 0.00 87 973.9
20211024060005 39 274 0.0 0.0 0.00 0.00 0.00 87 973.8
20211024055503 39 274 0.0 0.0 0.00 0.00 0.00 87 973.7
20211024055005 39 274 0.0 0.0 0.00 0.00 0.00 87 973.6
20211024054503 39 274 0.0 0.0 0.00 0.00 0.00 87 973.6
20211024054005 39 274 0.0 0.0 0.00 0.00 0.00 87 973.6
20211024053504 40 274 0.0 0.0 0.00 0.00 0.00 87 973.5
20211024053004 40 274 0.0 0.0 0.00 0.00 0.00 87 973.4
20211024052503 40 274 0.0 0.0 0.00 0.00 0.00 87 973.3
20211024052005 40 274 0.0 0.0 0.00 0.00 0.00 87 973.2
20211024051503 40 274 0.0 0.0 0.00 0.00 0.00 87 973.2
20211024051005 40 274 0.0 0.0 0.00 0.00 0.00 87 973.1
20211024050503 40 274 0.0 0.0 0.00 0.00 0.00 87 973.1
20211024050005 40 274 0.0 0.0 0.00 0.00 0.00 87 973.0
20211024045503 41 274 0.0 0.0 0.00 0.00 0.00 87 973.0
20211024045005 41 274 0.0 0.0 0.00 0.00 0.00 87 973.0
20211024044503 41 274 0.0 2.6 0.00 0.00 0.00 87 972.9
20211024044006 42 274 0.0 2.6 0.00 0.00 0.00 87 972.8
20211024043503 42 0 0.0 0.0 0.00 0.00 0.00 86 972.8
20211024043006 42 0 0.0 0.0 0.00 0.00 0.00 86 972.9
20211024042504 42 0 0.0 0.0 0.00 0.00 0.00 86 972.8
20211024042005 42 0 0.0 0.0 0.00 0.00 0.00 86 972.8
20211024041504 42 0 0.0 0.0 0.00 0.00 0.00 86 972.8
20211024041005 42 0 0.0 0.0 0.00 0.00 0.00 85 972.8
20211024040503 42 0 0.0 0.0 0.00 0.00 0.00 85 972.8
20211024040005 42 0 0.0 0.0 0.00 0.00 0.00 85 972.9
20211024035503 42 0 0.0 0.0 0.00 0.00 0.00 85 972.9
20211024035005 43 0 0.0 0.0 0.00 0.00 0.00 85 972.8
20211024034504 43 0 0.0 0.0 0.00 0.00 0.00 84 972.8
20211024034005 44 0 0.0 0.0 0.00 0.00 0.00 84 972.8
20211024033504 45 0 0.0 0.0 0.00 0.00 0.00 84 972.8
20211024033005 45 0 0.0 0.0 0.00 0.00 0.00 84 972.7
20211024032503 45 0 0.0 0.0 0.00 0.00 0.00 84 972.7